When you browse on this site, cookies collect data to enhance your experience and personalize the content and advertising you see.
Visit our Privacy Policy to learn more. By continuing to use the site, you agree to this use of cookies and data.
  • In Czech Republic
  • List of Countries
  • For 7 days
  • Water Temperature
  • Weather Map
  • Weather Widgets
  • user-avatar
    Login

    Hourly Weather Perth

    Today, 6 December, Friday

    Time Temperature Precipitation Wind Pressure Humidity
    00:00 +32°C° 0 mm 5 mps 756 mmHg 25%
    01:00 +30°C° 0 mm 5 mps 756 mmHg 28%
    02:00 +29°C° 0 mm 6 mps 755 mmHg 32%
    03:00 +29°C° 0 mm 6 mps 755 mmHg 33%
    04:00 +29°C° 0 mm 7 mps 755 mmHg 34%
    05:00 +29°C° 0 mm 8 mps 755 mmHg 35%
    06:00 +31°C° 0 mm 8 mps 755 mmHg 35%
    07:00 +32°C° 0 mm 8 mps 755 mmHg 34%
    08:00 +34°C° 0 mm 8 mps 755 mmHg 33%
    09:00 +36°C° 0 mm 7 mps 754 mmHg 29%
    10:00 +39°C° 0 mm 7 mps 754 mmHg 25%
    11:00 +41°C° 0 mm 6 mps 753 mmHg 21%
    12:00 +40°C° 0 mm 6 mps 753 mmHg 24%
    13:00 +38°C° 0 mm 7 mps 752 mmHg 28%
    14:00 +36°C° 0 mm 7 mps 751 mmHg 31%
    15:00 +34°C° 0 mm 6 mps 752 mmHg 35%
    16:00 +33°C° 0 mm 5 mps 752 mmHg 39%
    17:00 +32°C° 0 mm 4 mps 752 mmHg 43%
    18:00 +29°C° 0 mm 3 mps 752 mmHg 47%
    19:00 +28°C° 0 mm 3 mps 753 mmHg 52%
    20:00 +26°C° 0 mm 2 mps 753 mmHg 56%
    21:00 +25°C° 0 mm 2 mps 754 mmHg 60%
    22:00 +25°C° 0 mm 2 mps 754 mmHg 65%
    23:00 +24°C° 0 mm 2 mps 755 mmHg 69%

    Tomorrow, 7 December, Saturday

    Time Temperature Precipitation Wind Pressure Humidity
    00:00 +23°C° 0 mm 2 mps 755 mmHg 70%
    01:00 +23°C° 0 mm 1 mps 754 mmHg 72%
    02:00 +22°C° 0 mm 1 mps 754 mmHg 74%
    03:00 +22°C° 0 mm 1 mps 754 mmHg 75%
    04:00 +21°C° 0 mm 2 mps 754 mmHg 76%
    05:00 +20°C° 0 mm 2 mps 754 mmHg 77%
    06:00 +22°C° 0 mm 3 mps 754 mmHg 70%
    07:00 +23°C° 0 mm 4 mps 754 mmHg 62%
    08:00 +26°C° 0 mm 4 mps 755 mmHg 55%
    09:00 +27°C° 0 mm 5 mps 755 mmHg 54%
    10:00 +27°C° 0 mm 6 mps 755 mmHg 53%
    11:00 +28°C° 0 mm 7 mps 755 mmHg 52%
    12:00 +28°C° 0.1 mm 7 mps 755 mmHg 54%
    13:00 +27°C° 0.1 mm 7 mps 755 mmHg 57%
    14:00 +27°C° 0.1 mm 8 mps 755 mmHg 59%
    15:00 +26°C° 0 mm 7 mps 756 mmHg 58%
    16:00 +24°C° 0 mm 7 mps 756 mmHg 57%
    17:00 +23°C° 0 mm 6 mps 757 mmHg 56%
    18:00 +22°C° 0 mm 6 mps 757 mmHg 60%
    19:00 +21°C° 0 mm 5 mps 758 mmHg 64%
    20:00 +20°C° 0 mm 4 mps 758 mmHg 68%
    21:00 +19°C° 0 mm 4 mps 759 mmHg 69%
    22:00 +19°C° 0 mm 4 mps 759 mmHg 70%
    23:00 +19°C° 0 mm 3 mps 760 mmHg 72%

    Day after tomorrow, 8 December, Sunday

    Time Temperature Precipitation Wind Pressure Humidity
    00:00 +18°C° 0 mm 3 mps 760 mmHg 72%
    01:00 +18°C° 0 mm 3 mps 759 mmHg 72%
    02:00 +18°C° 0 mm 4 mps 759 mmHg 73%
    03:00 +17°C° 0 mm 3 mps 759 mmHg 73%
    04:00 +17°C° 0 mm 2 mps 760 mmHg 74%
    05:00 +18°C° 0 mm 1 mps 760 mmHg 74%
    06:00 +18°C° 0 mm 2 mps 760 mmHg 69%
    07:00 +19°C° 0 mm 3 mps 760 mmHg 64%
    08:00 +21°C° 0 mm 4 mps 761 mmHg 59%
    09:00 +21°C° 0 mm 4 mps 761 mmHg 57%
    10:00 +22°C° 0 mm 4 mps 761 mmHg 55%
    11:00 +23°C° 0 mm 5 mps 762 mmHg 52%
    12:00 +23°C° 0 mm 5 mps 761 mmHg 51%
    13:00 +24°C° 0 mm 6 mps 761 mmHg 50%
    14:00 +24°C° 0 mm 6 mps 760 mmHg 50%
    15:00 +24°C° 0 mm 6 mps 760 mmHg 51%
    16:00 +23°C° 0 mm 6 mps 761 mmHg 52%
    17:00 +23°C° 0 mm 6 mps 761 mmHg 54%
    18:00 +22°C° 0 mm 5 mps 761 mmHg 59%
    19:00 +20°C° 0 mm 5 mps 762 mmHg 64%
    20:00 +19°C° 0 mm 4 mps 762 mmHg 69%
    21:00 +19°C° 0 mm 4 mps 762 mmHg 67%
    22:00 +19°C° 0 mm 4 mps 763 mmHg 65%
    23:00 +18°C° 0 mm 4 mps 763 mmHg 63%

    9 December, Monday

    Time Temperature Precipitation Wind Pressure Humidity
    00:00 +18°C° 0 mm 3 mps 763 mmHg 61%
    01:00 +18°C° 0 mm 3 mps 763 mmHg 59%
    02:00 +17°C° 0 mm 3 mps 762 mmHg 57%
    03:00 +17°C° 0 mm 3 mps 763 mmHg 62%
    04:00 +17°C° 0 mm 3 mps 763 mmHg 66%
    05:00 +17°C° 0 mm 3 mps 764 mmHg 71%
    06:00 +18°C° 0 mm 3 mps 764 mmHg 65%
    07:00 +20°C° 0 mm 3 mps 764 mmHg 59%
    08:00 +21°C° 0 mm 3 mps 764 mmHg 53%
    09:00 +24°C° 0 mm 3 mps 764 mmHg 47%
    10:00 +27°C° 0 mm 3 mps 764 mmHg 40%
    11:00 +29°C° 0 mm 3 mps 764 mmHg 34%
    12:00 +29°C° 0 mm 4 mps 763 mmHg 33%
    13:00 +30°C° 0 mm 4 mps 762 mmHg 32%
    14:00 +30°C° 0 mm 5 mps 761 mmHg 31%
    15:00 +29°C° 0 mm 6 mps 761 mmHg 32%
    16:00 +28°C° 0 mm 7 mps 761 mmHg 34%
    17:00 +27°C° 0 mm 7 mps 761 mmHg 35%
    18:00 +24°C° 0 mm 7 mps 761 mmHg 41%
    19:00 +23°C° 0 mm 6 mps 762 mmHg 48%
    20:00 +21°C° 0 mm 5 mps 762 mmHg 54%
    21:00 +21°C° 0 mm 5 mps 763 mmHg 55%
    22:00 +21°C° 0 mm 5 mps 763 mmHg 56%
    23:00 +20°C° 0 mm 5 mps 763 mmHg 56%

    10 December, Tuesday

    Time Temperature Precipitation Wind Pressure Humidity
    00:00 +20°C° 0 mm 5 mps 763 mmHg 53%
    01:00 +20°C° 0 mm 5 mps 762 mmHg 49%
    02:00 +20°C° 0 mm 6 mps 762 mmHg 46%
    03:00 +20°C° 0 mm 5 mps 762 mmHg 45%
    04:00 +19°C° 0 mm 5 mps 763 mmHg 44%
    05:00 +17°C° 0 mm 5 mps 763 mmHg 43%
    06:00 +20°C° 0 mm 5 mps 763 mmHg 39%
    07:00 +22°C° 0 mm 5 mps 763 mmHg 35%
    08:00 +23°C° 0 mm 5 mps 764 mmHg 32%
    09:00 +27°C° 0 mm 4 mps 763 mmHg 28%
    10:00 +29°C° 0 mm 4 mps 763 mmHg 25%
    11:00 +33°C° 0 mm 4 mps 762 mmHg 21%
    12:00 +33°C° 0 mm 4 mps 762 mmHg 22%
    13:00 +34°C° 0 mm 4 mps 761 mmHg 23%
    14:00 +34°C° 0 mm 5 mps 760 mmHg 24%
    15:00 +33°C° 0 mm 5 mps 760 mmHg 28%
    16:00 +32°C° 0 mm 6 mps 760 mmHg 32%
    17:00 +30°C° 0 mm 7 mps 760 mmHg 35%
    18:00 +28°C° 0 mm 6 mps 760 mmHg 41%
    19:00 +27°C° 0 mm 5 mps 760 mmHg 47%
    20:00 +26°C° 0 mm 5 mps 761 mmHg 53%
    21:00 +25°C° 0 mm 5 mps 761 mmHg 48%
    22:00 +24°C° 0 mm 6 mps 761 mmHg 44%
    23:00 +24°C° 0 mm 6 mps 761 mmHg 40%

    11 December, Wednesday

    Time Temperature Precipitation Wind Pressure Humidity
    00:00 +23°C° 0 mm 6 mps 761 mmHg 42%
    01:00 +23°C° 0 mm 7 mps 762 mmHg 44%
    02:00 +22°C° 0 mm 8 mps 762 mmHg 45%
    03:00 +21°C° 0 mm 7 mps 762 mmHg 46%
    04:00 +21°C° 0 mm 7 mps 762 mmHg 47%
    05:00 +20°C° 0 mm 7 mps 762 mmHg 47%
    06:00 +22°C° 0 mm 7 mps 762 mmHg 43%
    07:00 +24°C° 0 mm 6 mps 763 mmHg 39%
    08:00 +26°C° 0 mm 6 mps 763 mmHg 35%
    09:00 +29°C° 0 mm 6 mps 762 mmHg 31%
    10:00 +32°C° 0 mm 5 mps 762 mmHg 28%
    11:00 +34°C° 0 mm 4 mps 762 mmHg 24%
    12:00 +35°C° 0 mm 4 mps 761 mmHg 23%
    13:00 +36°C° 0 mm 4 mps 760 mmHg 22%
    14:00 +37°C° 0 mm 4 mps 760 mmHg 21%
    15:00 +36°C° 0 mm 4 mps 759 mmHg 22%
    16:00 +35°C° 0 mm 5 mps 759 mmHg 24%
    17:00 +35°C° 0 mm 5 mps 759 mmHg 25%
    18:00 +33°C° 0 mm 5 mps 759 mmHg 26%
    19:00 +32°C° 0 mm 4 mps 760 mmHg 27%
    20:00 +29°C° 0 mm 4 mps 760 mmHg 29%
    21:00 +28°C° 0 mm 6 mps 761 mmHg 33%
    22:00 +27°C° 0 mm 7 mps 761 mmHg 38%
    23:00 +26°C° 0 mm 9 mps 761 mmHg 43%
    Show more